User: anonymous   Login
Location: Lake Superior Provincial Park
(47.3335°N, 84.6162°W)
Time: 00:22:19
(UTC-04:00)
Language:

Cosmos 2333 Rocket - Orbit

View from above orbital plane
View from above orbital plane
View from above satellite
View from above satellite

Ground track
Ground track

The orbit data is extracted from the following two-line orbital elements,

1 24298U 96051B   16182.18072837  .00000055  00000-0  55987-4 0  9998
2 24298  70.8376  84.0405 0015654 334.0723  25.9611 14.12408660 22114
Epoch (UTC): 30 June 2016 04:20:14
Eccentricity: 0.0015654
inclination: 70.8376°
perigee height: 840 km
apogee height: 862 km
right ascension of ascending node: 84.0405°
argument of perigee: 334.0723°
revolutions per day: 14.12408660
mean anomaly at epoch: 25.9611°
orbit number at epoch: 2211

The dashed part of the orbit path shows where the satellite is in the earth's shadow,  

DLR